Preview of NWS' New Version of Forecast
This preview is not operational and should not be used for support decisions.
Latest weather observations around

Alexandria, Alexandria International Airport (KAEX)

Using International System of Units (Switch to English Units)
Date/ Time (CDT) Wind (kph) Vis. (km) Weather Sky Cond. Temp (°C) Rel. Humidity Wind Chill (°C) Heat Index (°C) Pressure Precip. (cm)
Air Dwpt 6 hour Altimeter (hPa) Sea level (hPa) 1 hr 3 hr 6 hr
Max Min
Sep 16 22:53 SE 9 16.09 Clear CLR 25 23     88%   26 1015.2 1015.2      
Sep 16 21:53 SE 5 16.09 Clear CLR 26 23     85%   26 1014.9 1015      
Sep 16 20:53 SSE 8 16.09 Clear CLR 26 23     82%   28 1014.6 1014.8      
Sep 16 19:53 SSE 11 16.09 Clear CLR 28 23     74%   31 1014.2 1014.4      
Sep 16 18:53 SSE 13 16.09 Clear CLR 29 22     67%   32 1013.9 1014.1     0
Sep 16 17:53 SSE 15 16.09 Clear CLR 31 22     59%   34 1013.9 1014 0    
Sep 16 16:53 SSE 21 16.09 Light Rain FEW055 SCT090 BKN110 29 22     65%   32 1013.9 1014.2 0    
Sep 16 16:23   16.09 Mostly Cloudy FEW075 SCT090 BKN110 30 22     61%   33 1014.2        
Sep 16 15:53 E 17 16.09 Partly Cloudy FEW070 SCT100 35 18     36%   36 1013.6 1013.6      
Sep 16 14:53 SE 21 16.09 Mostly Clear FEW075 35 18     37%   36 1014.2 1014.3      
Sep 16 13:53 E 18 16.09 Partly Cloudy FEW060 SCT075 36 19     39%   38 1015.2 1015.2      
Sep 16 12:53 NE 18 16.09 Mostly Clear FEW060 34 19     40%   36 1015.9 1016      
Sep 16 11:53 E 15 16.09 Partly Cloudy SCT055 34 20     43%   37 1016.6 1016.7      
Sep 16 10:53 E 17 16.09 Clear CLR 33 21     47%   36 1016.9 1016.9      
Sep 16 09:53 ENE 11 16.09 Clear CLR 31 22     59%   34 1016.6 1016.8      
Sep 16 08:53 NNE 8 14.48 Clear CLR 27 22     72%   29 1016.9 1016.9      
Sep 16 07:53 NNE 11 11.27 Clear CLR 24 21     84%   25 1016.6 1016.9      
Sep 16 06:53 NE 9 12.87 Clear CLR 23 21     90%   23 1016.3 1016.6      
Sep 16 05:53 Calm 12.87 Clear CLR 22 20     90%   22 1016.3 1016.4      
Sep 16 04:53 Calm 12.87 Clear CLR 23 21     90%   23 1015.9 1015.9      
Sep 16 03:53 Calm 14.48 Clear CLR 22 19     87%   22 1015.9 1016      
Sep 16 02:53 Calm 14.48 Clear CLR 23 19     81%   23 1015.6 1015.8      
Sep 16 01:53 Calm 16.09 Clear CLR 23 19     81%   23 1015.9 1016.1      
Sep 16 00:53 Calm 16.09 Clear CLR 24 19     76%   24 1015.9 1016      
Sep 15 23:53 Calm 16.09 Clear CLR 25 21     79%   26 1015.9 1015.9      
Sep 15 22:53 Calm 16.09 Clear CLR 26 21     74%   26 1015.6 1015.8      
Sep 15 21:53 ENE 5 16.09 Clear CLR 27 21     71%   28 1015.6 1015.8      
Sep 15 20:53 E 8 16.09 Clear CLR 29 21     61%   31 1015.2 1015.2      
Sep 15 19:53 ENE 8 16.09 Clear CLR 29 20     57%   31 1014.6 1014.6      
Sep 15 18:53 ENE 9 16.09 Clear CLR 32 19     47%   34 1014.6 1014.7      
Sep 15 17:53 ENE 13 16.09 Clear CLR 34 18     40%   35 1014.2 1014.3      
Sep 15 16:53 E 18 16.09 Clear CLR 35 18     37%   36 1014.2 1014.2      
Sep 15 15:53 ENE 18 16.09 Mostly Clear FEW065 36 18     36%   37 1014.2 1014.5      
Sep 15 14:53 E 18 16.09 Clear CLR 36 19     38%   38 1014.9 1015      
Sep 15 13:53 9 16.09 Mostly Clear FEW055 35 21     43%   38 1015.9 1016      
Sep 15 12:53 ENE 15 16.09 Partly Cloudy SCT060 34 20     43%   37 1016.6 1016.8      
Sep 15 11:53 ESE 15 16.09 Partly Cloudy SCT060 34 20     44%   36 1017.3 1017.3      
Sep 15 10:53 E 15 16.09 Clear CLR 32 21     50%   35 1017.6 1017.7      
Sep 15 09:53 8 16.09 Clear CLR 31 21     55%   33 1017.6 1018      
Sep 15 08:53 ENE 8 16.09 Clear CLR 27 20     65%   29 1018 1018      
Sep 15 07:53 Calm 12.87 Clear CLR 23 20     82%   24 1018 1018      
Sep 15 06:53 Calm 16.09 Clear CLR 21 18     84%     1017.6 1017.9      
Sep 15 05:53 Calm 16.09 Clear CLR 22 19     84%   23 1017.6 1017.7      
Sep 15 04:53 NW 5 14.48 Clear CLR 22 19     87%   22 1017.6 1017.8      
Sep 15 03:53 NNW 5 14.48 Clear CLR 21 19     90%     1017.3 1017.5      
Sep 15 02:53 Calm 16.09 Clear CLR 22 19     84%   22 1017.3 1017.5      
Sep 15 01:53 Calm 16.09 Clear CLR 22 18     79%   23 1017.6 1017.8      
Sep 15 00:53 Calm 16.09 Clear CLR 22 20     87%   23 1018 1018.2      
Sep 14 23:53 Calm 16.09 Clear CLR 23 19     79%   24 1018 1018.2      
Sep 14 22:53 Calm 16.09 Clear CLR 26 18     64%   26 1018 1018      
Sep 14 21:53 Calm 16.09 Clear CLR 25 19     69%   25 1017.3 1017.6      
Sep 14 20:53 E 9 16.09 Clear CLR 29 17     49%   29 1016.9 1017.1      
Sep 14 19:53 ESE 9 16.09 Clear CLR 30 16     43%   30 1016.6 1016.7      
Sep 14 18:53 ESE 17 16.09 Clear CLR 33 17     38%   33 1016.3 1016.3      
Sep 14 17:53 ESE 21 16.09 Clear CLR 35 18     36%   36 1015.6 1015.8      
Sep 14 16:53 E 15 16.09 Mostly Clear FEW075 36 18     35%   38 1015.6 1015.7      
Sep 14 15:53 ENE 15 16.09 Clear CLR 37 18     34%   38 1015.9 1016      
Sep 14 14:53 E 15 16.09 Mostly Clear FEW065 36 20     39%   39 1016.6 1016.6      
Sep 14 13:53 ENE 22 16.09 Clear CLR 36 19     38%   39 1017.3 1017.5      
Sep 14 12:53 ENE 18 16.09 Clear CLR 35 20     42%   38 1018 1018.2      
Sep 14 11:53 5 14.48 Clear CLR 34 21     46%   38 1018.6 1018.9      
Sep 14 10:53 ESE 5 14.48 Clear CLR 32 21     52%   35 1019 1019.2      
Sep 14 09:53 E 5 12.87 Clear CLR 29 21     63%   31 1019.3 1019.6      
Sep 14 08:53 ENE 8 12.87 Clear CLR 27 21     69%   28 1019.3 1019.6      
Sep 14 07:53 Calm 9.66 Fog/Mist CLR 22 20     87%   23 1019 1019.2      
Sep 14 06:53 WNW 5 11.27 Clear CLR 21 19     90%     1018.3 1018.5      
Sep 14 05:53 Calm 11.27 Clear CLR 21 19     90%     1018.3 1018.3      
Sep 14 04:53 Calm 12.87 Clear CLR 22 19     87%   22 1017.6 1017.8      
Sep 14 03:53 Calm 12.87 Clear CLR 22 19     84%   23 1017.6 1017.6      
Sep 14 02:53 Calm 14.48 Mostly Clear FEW080 23 20     82%   24 1017.6 1017.8      
Sep 14 01:53 Calm 14.48 Cloudy OVC090 26 20     71%   26 1018 1017.9      
Sep 14 00:53 8 14.48 Cloudy BKN090 OVC110 24 21     82%   25 1018.3 1018.3      
Sep 13 23:53 Calm 16.09 Mostly Clear FEW110 23 19     79%   23 1018 1018      
May 15 06:39 WNW 5 4.83 Clear CLR 22 19     87%   22 1013.6        
May 15 05:53 Calm 6.44 Clear CLR 21 19     87%     1012.9 1013      
May 14 23:53 Calm 9.66 Clear CLR 24 21     82%   24 1013.6 1013.9      
May 13 13:53 NE 11 16.09 Mostly Cloudy BKN044 BKN055 BKN080 32 20     50%   34 1016.9 1017.1      
May 13 10:53 ENE 9 14.48 Mostly Clear FEW022 28 21     65%   31 1018.6 1018.9      
Notice The following observation data may not be complete
May 13 06:02   11.27 Mostly Cloudy BKN015 BKN020          %              
May 13 05:14 SE 9 11.27 Partly Cloudy SCT019 22 21     93%   22 1016.6        
May 11 23:53 SSE 9 14.48 Clear CLR 21 18     84%     1016.6 1016.7      
May 11 19:53 S 18 12.87 Mostly Clear FEW060 28 17     53%   28 1014.6 1014.9      
Jun 12 04:53 E 8 16.09 Partly Cloudy SCT032 22 22     97%   23 1015.2 1015.5      
Jun 12 01:00 SSE 8 16.09 Mostly Cloudy BKN008 BKN014 23 23     97%   24 1015.2        
Jun 11 22:16 SE 11 16.09 Clear   24 23     94%   25 1015.6        
Jun 11 17:41 SE 8 4.83 Light Rain and Fog/Mist FEW036 BKN075 OVC100 23 22     94%   24 1014.6   0    
Jun 11 15:20 SSE 21 11.27 Clear   30 24     72%   36 1014.2   0    
Jun 11 12:10 SE 11 16.09 Cloudy FEW019 BKN030 OVC038 28 23     74%   32 1015.9        
Jun 11 09:42 E 13 16.09 Mostly Cloudy BKN029 26 22     79%   28 1016.3        
Jun 11 08:53 ESE 11 16.09 Mostly Cloudy FEW018 BKN031 24 22     85%   25 1015.9 1016.3      
Jun 11 07:53 E 5 14.48 Clear CLR 23 21     85%   24 1015.6 1015.7      
Jun 09 23:53 Calm 16.09 Clear CLR 20 17     81%     1013.6 1013.6      
Jun 08 18:53 NNE 8 16.09 Mostly Clear FEW065 27 14     45%   27 1011.2 1011.5      
Jun 08 16:53 N 8 16.09 Mostly Clear FEW065 28 13     40%   28 1011.9 1011.9      
Jun 08 07:53 Calm 16.09 Clear CLR 19 16     79%     1014.6 1014.9      
Jun 08 04:53 Calm 16.09 Clear CLR 16 15     93%     1012.9 1013.3      
Jun 07 21:53 NNE 8 16.09 Clear CLR 22 16     68%   22 1012.9 1013.1      
Jun 06 04:53 W 8 12.87 Cloudy SCT004 OVC060 22 22     100%   23 1006.1 1006.3 0    
Jun 05 13:53 Calm 16.09 Mostly Cloudy BKN025 BKN036 27 21     71%   28 1006.8 1006.9